Theta_e
313 312 313 313 314 318 320 320 323 322 322 324 321 319 316 314 314 316 318 318 316 316 315 316 316 316 316 317 317 317 317 318 319 321 322 322 319 319 320 318 317 317 318 318 319 322 325 327 327 327 329 330 331 334 336 336 336 333 331 331 332 331 330 330 328 326 321 318 317 316 317 318 318 318 317 317 317 316 317 318 318 322 327 330 330 330 330 332 332 332 332 330 329 328 327 326 324
313 313 314 314 317 323 320 320 326 327 325 320 317 317 314 314 316 318 320 320 318 316 316 316 316 316 316 317 317 317 317 317 318 319 319 319 320 319 319 317 317 317 318 318 318 320 323 326 328 328 327 328 329 332 333 334 335 332 330 329 330 330 330 330 325 321 318 317 317 317 318 318 318 318 319 320 320 319 318 318 316 319 325 328 330 331 330 332 332 332 332 332 331 330 329 328 327
314 314 314 317 320 321 322 321 324 329 325 318 318 320 315 314 319 319 318 317 316 315 316 317 316 317 316 317 318 318 318 318 318 319 319 319 320 318 317 317 316 317 318 318 318 319 321 324 327 328 327 327 327 329 330 332 333 330 328 328 328 328 330 328 321 318 317 317 317 318 319 319 322 322 324 326 326 322 321 321 319 320 324 326 330 333 332 333 334 332 332 332 332 330 329 328 327
317 317 316 319 319 320 331 330 327 331 325 319 319 321 320 318 319 316 315 315 315 316 316 317 317 317 317 318 318 318 318 319 319 319 319 319 318 317 316 316 316 317 317 318 318 318 320 322 324 327 328 327 327 328 329 330 331 328 327 327 327 328 329 326 319 317 318 318 319 319 319 322 325 327 329 331 330 325 322 323 322 324 327 326 330 332 332 333 332 332 332 331 330 329 328 327 326
319 320 318 319 320 319 330 328 325 328 321 321 318 317 323 322 319 313 314 316 316 316 317 317 318 317 317 318 317 318 319 319 319 319 319 319 317 316 316 315 316 316 316 317 318 319 319 321 322 325 327 327 327 327 328 329 329 327 326 326 326 327 329 325 318 318 318 318 319 319 321 325 326 328 331 332 331 325 321 324 325 328 330 328 329 330 330 330 329 329 329 329 329 328 326 325 324
318 319 319 319 320 316 322 322 321 323 320 322 319 318 320 317 315 312 313 316 316 317 317 317 317 317 317 317 317 318 319 319 319 319 319 319 317 316 316 315 315 316 316 316 318 319 319 320 321 323 325 327 327 327 327 328 327 326 325 325 325 325 328 325 318 318 318 319 319 321 324 326 326 328 331 332 330 324 320 322 326 328 328 327 326 325 324 324 323 321 321 322 324 325 325 323 322
317 319 318 319 319 317 326 327 324 324 318 316 317 320 317 311 311 311 314 316 316 316 317 317 317 317 317 316 317 317 318 318 318 319 318 319 318 316 315 315 315 315 315 316 317 318 319 320 321 322 323 325 326 326 326 326 326 325 326 325 324 324 326 325 320 318 319 319 319 322 326 327 327 330 331 333 329 322 319 319 321 323 322 321 320 319 318 318 316 314 312 312 314 316 318 319 318
318 318 317 324 326 324 332 328 325 323 315 311 313 316 315 311 310 311 314 315 316 316 316 317 316 317 317 316 316 317 317 318 318 318 318 319 318 316 315 316 315 315 315 315 315 317 319 319 321 321 323 324 325 325 325 327 327 324 326 326 325 325 325 326 322 319 318 320 320 323 326 326 327 331 332 333 330 322 320 319 319 319 319 319 320 320 320 318 316 312 308 307 308 310 312 312 312
318 319 316 323 327 325 330 324 320 320 319 316 313 314 313 312 311 312 314 314 315 315 315 316 316 316 315 315 316 317 317 317 316 316 318 319 318 316 316 316 316 316 315 315 315 316 318 319 320 321 323 324 325 325 326 329 328 324 325 326 326 325 324 325 324 321 319 319 321 323 326 327 327 330 332 333 332 326 322 322 323 323 322 322 323 324 322 319 315 309 306 307 307 308 309 309 308
317 319 314 320 324 321 323 321 320 320 321 318 312 313 313 313 312 312 314 314 314 314 315 315 316 316 315 316 316 317 317 316 315 315 317 318 317 316 316 316 316 316 316 315 315 315 316 318 319 320 322 324 325 325 326 329 329 325 325 326 326 326 325 325 325 323 320 320 321 323 326 326 326 328 331 333 333 331 327 326 327 328 327 326 325 325 321 317 314 309 306 306 305 306 306 307 307
318 317 315 322 325 318 318 321 324 325 322 315 312 313 313 314 313 312 313 313 313 313 314 315 316 316 316 316 316 316 316 316 315 315 315 316 317 316 316 316 316 316 316 316 315 315 315 316 318 319 321 323 325 325 326 328 328 326 326 326 326 326 326 326 325 325 323 321 321 324 325 325 325 326 330 332 332 332 331 330 329 329 328 327 326 324 320 315 313 310 306 305 304 304 305 306 306
317 318 325 330 321 317 319 322 327 328 327 320 315 313 313 313 313 313 313 313 313 313 314 315 315 315 315 315 316 316 316 315 315 315 315 315 316 316 316 315 316 316 316 316 315 315 315 315 315 317 319 321 323 324 326 328 328 328 327 327 327 326 327 327 326 326 325 324 322 323 326 327 327 327 329 330 332 331 330 330 330 329 328 328 326 323 319 315 312 309 305 304 304 303 304 304 304
318 317 328 326 316 319 319 319 325 327 327 318 313 313 313 313 313 313 313 313 313 313 315 315 315 316 315 315 315 316 316 315 314 315 315 315 315 315 316 315 316 316 316 316 315 315 315 315 314 316 317 319 322 323 326 328 330 330 329 328 328 327 327 327 327 327 327 326 325 324 326 327 328 330 329 329 330 330 328 328 328 328 328 328 326 323 319 314 311 308 305 303 303 303 303 303 303
318 316 323 321 313 320 319 317 321 322 320 315 313 312 313 313 313 314 313 315 314 313 316 315 315 315 315 315 315 316 315 314 314 314 314 314 315 315 316 316 316 315 316 316 316 315 315 315 315 315 316 318 320 321 325 328 330 331 330 328 328 328 327 328 328 328 328 328 327 325 325 325 326 329 330 329 328 329 328 328 328 326 327 327 326 323 319 314 311 309 306 303 303 303 303 303 303
317 314 321 322 316 319 317 317 320 321 319 315 314 312 314 315 314 314 313 315 314 314 315 315 315 315 315 315 315 315 314 314 314 314 314 314 314 315 315 316 316 315 315 315 315 315 315 315 314 315 315 316 318 319 323 327 330 330 330 329 329 328 327 328 328 328 328 328 328 326 326 325 324 326 329 330 329 329 329 329 328 327 327 326 325 323 318 314 311 310 307 304 302 302 303 303 303
316 313 319 320 315 316 314 315 319 320 319 314 313 313 315 315 313 314 313 314 314 314 315 315 315 315 315 315 315 314 314 314 314 314 314 314 314 314 315 316 317 316 315 315 315 316 316 315 315 315 315 316 317 318 321 325 329 330 330 329 330 330 328 328 328 328 328 327 327 326 327 327 325 325 328 329 329 329 329 329 328 326 326 326 325 322 317 314 312 310 308 305 303 302 303 303 302
314 317 324 319 314 316 316 318 318 318 320 314 312 314 314 315 314 314 314 314 314 314 315 315 314 314 315 314 314 314 314 314 314 315 314 314 314 314 315 315 316 316 316 315 315 316 316 316 315 315 315 315 316 318 320 323 326 328 329 329 330 331 329 327 327 327 327 327 327 326 326 327 327 328 328 329 329 329 329 329 327 326 326 326 325 321 317 316 313 310 308 306 303 302 303 303 302
318 327 324 317 318 318 317 321 316 314 318 314 312 313 313 315 314 313 314 315 314 314 315 315 315 314 314 313 314 314 314 314 314 314 314 314 314 314 315 315 315 316 316 316 315 315 315 316 316 316 315 315 316 317 318 321 323 325 327 327 329 331 330 329 329 328 327 327 327 327 327 326 327 328 328 329 330 328 328 328 327 327 326 326 325 322 319 318 314 310 309 307 304 303 302 303 302
319 324 317 320 326 317 313 315 312 312 314 312 313 313 312 314 313 313 314 314 313 314 315 315 315 314 314 314 314 314 314 314 315 314 314 314 314 314 314 314 315 315 316 316 316 316 316 316 316 316 316 316 316 317 318 320 323 324 325 326 328 331 333 333 333 331 330 329 327 326 327 327 326 327 329 330 329 328 328 327 327 328 326 326 324 322 321 320 316 313 310 308 305 303 302 302 302
315 317 319 327 322 312 311 312 312 313 313 312 314 313 311 314 313 313 313 313 313 314 315 314 314 314 314 313 313 313 314 314 314 314 314 314 314 314 314 315 314 315 315 315 316 315 316 316 316 316 316 317 317 317 317 319 322 324 325 325 325 327 329 331 333 333 333 332 330 328 327 327 326 327 329 329 328 328 328 327 327 326 325 324 324 323 322 322 319 317 315 311 307 305 303 302 302
314 316 324 323 311 312 315 313 314 314 313 313 313 312 312 314 313 313 313 313 313 314 314 313 313 313 313 313 313 313 313 314 314 314 314 314 314 314 314 315 314 315 315 315 315 315 315 315 316 316 316 316 317 317 317 317 320 322 325 325 325 330 332 329 329 330 330 331 330 328 328 328 327 327 327 328 328 328 327 327 326 324 324 324 325 325 324 323 321 320 319 315 310 307 305 303 302
316 316 317 314 310 314 316 313 316 314 313 313 312 313 314 313 312 312 312 313 314 313 312 313 312 312 312 313 313 313 313 313 314 313 314 314 314 314 314 315 314 315 314 315 315 314 315 315 315 315 316 316 316 317 317 318 318 320 323 323 324 333 338 336 333 331 328 328 328 327 327 327 327 326 326 326 327 327 325 325 325 325 326 326 326 325 324 324 322 321 320 318 314 310 309 306 302
317 316 312 313 312 314 316 315 315 314 313 313 312 313 312 311 312 311 311 312 312 311 312 311 311 311 312 312 312 313 313 314 314 314 315 315 315 315 315 315 315 315 315 315 314 314 314 314 315 315 316 316 316 317 317 318 318 320 321 322 326 329 331 333 335 337 334 333 332 330 327 326 326 326 324 324 325 326 324 325 327 327 328 328 325 324 324 323 322 321 319 318 317 314 312 310 305
317 318 313 313 314 313 315 314 313 313 312 312 312 311 311 312 312 311 311 311 311 310 311 310 311 311 311 312 312 313 314 314 315 315 315 315 316 316 316 316 315 315 315 315 314 315 314 314 314 315 316 316 316 316 317 318 319 321 320 324 332 330 328 329 328 332 333 332 335 333 330 328 326 325 325 326 326 327 328 329 330 328 327 326 324 323 322 322 321 321 319 317 317 317 314 311 308
317 319 314 313 313 313 313 312 313 313 312 313 312 310 311 312 311 311 310 310 309 310 310 310 311 311 311 312 313 313 313 314 314 314 314 315 315 315 315 315 315 315 314 315 314 314 314 314 314 315 316 315 316 316 317 319 319 321 322 325 333 330 328 329 324 326 326 326 332 334 332 328 323 324 328 329 328 328 330 330 328 327 325 323 323 323 322 322 322 322 321 319 318 318 316 312 309
315 316 313 312 312 312 313 312 313 313 312 312 311 311 311 311 311 311 310 309 309 310 310 310 311 311 312 312 313 313 313 313 313 313 314 313 314 314 314 314 314 314 314 314 315 315 315 314 314 316 316 316 316 316 318 319 319 324 326 327 333 331 329 330 329 330 328 325 329 332 333 329 324 326 329 328 328 330 330 327 326 326 324 323 323 322 322 322 322 322 321 320 318 317 316 313 311
312 312 311 312 312 312 312 313 313 312 311 311 311 312 310 309 311 312 310 309 310 310 310 311 311 312 312 313 313 313 313 313 313 312 313 313 313 313 313 314 314 314 314 315 315 315 315 315 315 316 316 316 316 317 318 318 321 325 327 330 332 331 330 329 329 332 329 326 328 331 330 327 326 328 328 327 327 330 328 326 325 325 325 326 324 323 322 322 322 321 321 320 318 318 317 314 313
311 311 312 312 311 312 312 312 312 311 312 311 310 310 309 309 311 312 308 309 310 310 311 311 311 312 312 312 312 313 313 313 312 312 312 313 313 313 313 313 313 314 314 315 315 316 316 315 316 316 316 317 316 317 319 319 325 326 327 331 328 327 330 326 325 328 327 326 328 328 326 325 326 328 330 329 328 329 327 326 326 326 327 327 325 323 322 322 321 321 320 319 319 318 317 316 315
312 311 314 315 313 314 312 310 309 309 311 311 309 312 316 313 310 309 307 309 310 310 311 311 311 312 311 311 311 312 312 312 312 312 312 312 313 313 313 313 313 313 314 314 315 316 317 316 316 316 316 317 317 318 321 322 327 327 328 329 324 324 328 325 323 323 322 325 328 328 327 328 327 327 328 328 328 328 327 327 327 326 326 325 324 323 322 321 321 320 320 319 318 318 317 317 317
313 310 312 315 316 318 312 307 309 310 311 311 310 317 324 316 307 306 308 309 311 311 311 311 311 310 310 310 310 311 311 311 311 311 312 311 312 312 312 313 313 313 314 314 315 316 316 317 316 317 317 318 318 319 322 325 325 325 325 326 323 323 323 322 322 322 321 324 327 327 327 327 327 327 328 327 328 329 328 328 327 325 324 323 323 321 320 320 320 319 319 318 318 317 317 317 317
315 310 314 317 316 322 317 308 310 312 312 310 311 317 321 314 306 307 309 309 310 311 310 309 309 309 309 309 309 310 310 310 311 310 311 311 311 312 312 313 313 314 314 314 315 315 316 317 317 317 318 319 320 320 322 325 325 325 326 326 327 326 323 324 324 323 324 325 327 327 327 327 327 328 329 328 328 328 327 326 325 323 322 322 322 321 320 319 319 318 318 317 317 317 316 316 316
320 314 321 321 315 322 321 309 308 312 311 309 311 318 319 312 306 308 310 309 310 310 309 308 308 308 308 308 308 309 309 309 310 310 310 311 311 312 312 313 313 313 314 314 315 316 316 317 317 318 319 320 321 322 323 324 324 325 327 327 328 327 326 327 326 325 326 326 327 327 327 327 327 327 327 327 326 326 326 326 324 323 323 323 322 321 320 320 319 318 317 317 316 316 316 315 315
322 316 321 324 317 318 318 311 307 308 310 309 311 316 319 313 305 308 310 309 310 309 308 307 307 307 307 307 308 308 308 308 309 309 310 310 310 311 311 311 312 313 314 315 316 316 316 317 318 318 318 319 321 322 323 324 324 324 324 324 325 325 325 326 325 324 325 325 325 326 326 326 326 325 325 325 325 324 325 324 324 324 323 323 321 321 321 321 320 319 318 317 316 316 315 315 315
324 316 317 320 317 315 317 317 309 306 310 312 312 312 316 312 304 306 310 308 309 309 307 306 306 306 306 306 307 307 308 308 308 309 309 310 310 310 310 310 311 311 313 314 315 315 316 316 317 317 318 320 320 321 322 322 323 323 323 323 323 323 324 323 322 322 323 324 323 323 324 324 324 323 322 323 322 322 322 322 321 321 321 321 321 321 321 321 320 319 319 318 317 317 316 316 315
327 321 318 319 317 314 315 317 311 309 312 314 315 314 315 314 308 306 308 307 308 307 305 305 305 305 305 305 306 306 307 307 308 308 308 309 309 309 309 309 310 310 312 313 314 315 315 315 316 317 318 319 319 320 321 321 321 321 321 322 321 321 321 321 321 321 321 322 321 321 321 322 322 321 321 320 320 319 319 319 320 320 320 320 321 321 320 319 319 319 318 318 318 317 316 316 315
324 322 320 320 319 316 315 316 311 309 313 314 314 314 314 315 312 308 306 306 306 305 304 303 304 304 304 304 305 305 305 306 307 307 307 307 308 308 308 308 309 310 311 313 314 314 314 315 315 314 316 317 318 318 319 319 319 319 319 319 319 319 318 318 319 319 319 320 319 318 319 319 319 319 318 318 317 317 316 316 317 317 318 318 318 319 318 317 317 317 317 317 316 316 315 315 314
316 317 316 317 317 316 315 315 311 307 311 317 316 315 313 314 314 308 304 305 304 303 303 302 303 303 303 303 303 304 304 305 305 305 306 306 307 307 308 308 309 310 311 312 313 312 313 313 312 312 314 316 316 317 317 318 317 317 317 317 316 316 316 316 316 317 316 317 316 316 316 316 316 316 316 315 315 315 314 315 315 316 316 316 317 316 316 315 314 314 315 315 314 314 313 313 313
313 313 315 315 314 314 313 313 313 309 310 317 318 316 314 313 314 307 303 305 303 302 302 301 302 301 302 302 302 303 303 303 304 305 305 306 306 307 307 308 309 309 309 310 310 310 310 311 310 311 313 314 314 314 314 314 315 315 314 314 313 313 313 313 313 313 312 313 313 312 312 312 311 311 311 310 310 310 310 311 311 312 313 313 312 312 312 311 311 311 311 311 311 311 310 310 310
313 312 312 314 314 314 315 315 314 311 311 317 318 314 314 315 313 305 301 303 302 301 302 301 301 301 301 301 302 302 302 303 304 304 305 305 306 306 306 307 307 307 307 308 308 308 308 308 308 309 310 310 310 310 310 310 311 311 311 311 311 311 311 310 310 309 309 309 308 308 308 307 307 307 307 307 307 307 307 307 307 307 307 307 307 306 306 306 306 306 306 306 306 306 307 307 307
313 313 313 315 313 314 319 316 313 312 311 315 316 313 314 315 311 304 301 301 301 301 301 301 300 301 300 300 301 301 302 303 303 304 304 305 305 305 306 306 306 306 306 307 307 307 307 307 307 307 307 307 307 308 308 308 308 308 308 309 308 308 308 307 307 307 306 306 306 306 306 305 305 305 305 305 305 305 305 305 305 304 304 304 304 303 303 303 303 303 303 303 303 303 304 304 304
314 315 313 314 314 314 317 315 314 315 313 311 312 315 318 317 313 308 302 301 301 301 301 300 300 300 300 300 300 301 302 302 303 304 304 304 305 305 305 306 306 306 306 306 306 306 306 306 306 306 306 306 306 306 307 307 307 307 307 307 307 307 306 306 306 305 305 305 305 305 304 304 304 304 304 304 304 304 304 304 304 304 304 303 303 303 303 303 302 302 302 302 302 302 301 301 301
317 318 315 313 315 315 314 314 313 318 320 313 310 319 327 323 317 310 304 303 302 300 300 299 299 299 299 300 300 301 301 302 303 303 304 304 305 305 305 305 305 305 305 305 305 305 305 305 305 305 305 305 305 305 306 306 306 306 306 306 306 306 305 305 304 304 304 303 303 303 303 302 302 302 302 301 301 301 301 301 301 301 301 301 301 301 301 301 301 301 301 301 301 301 301 301 301
318 318 316 313 313 313 313 314 315 320 322 312 309 318 324 324 323 312 304 305 303 301 300 299 299 299 299 300 300 300 301 302 302 303 303 304 304 304 304 305 305 304 304 304 304 304 304 304 304 304 304 304 304 304 304 304 305 305 305 304 304 304 304 303 302 302 301 301 301 300 299 299 298 298 298 297 297 297 297 297 296 296 296 296 296 296 296 297 297 297 298 298 298 298 299 299 300
321 317 316 316 314 315 316 315 316 319 319 314 314 316 317 321 322 309 303 307 305 301 301 300 299 299 299 299 299 300 301 302 302 303 303 303 303 304 304 304 304 304 303 303 303 303 303 303 303 303 302 302 302 302 302 303 303 303 302 302 302 301 301 300 299 298 297 297 297 296 295 295 295 294 294 294 294 294 294 294 294 294 294 294 293 293 293 293 293 293 293 293 294 294 294 294 295
320 313 313 316 315 317 318 316 317 315 314 319 320 315 315 321 320 308 304 309 308 304 303 301 299 299 299 299 299 300 301 302 302 302 302 302 302 303 303 303 303 302 302 302 302 302 302 301 301 301 301 301 300 300 300 300 300 300 300 300 300 299 298 297 295 295 294 294 294 294 294 293 293 293 293 293 293 293 293 293 293 293 293 292 292 292 292 292 292 292 291 291 291 291 291 291 291
312 307 311 313 313 314 315 316 318 314 314 321 321 316 317 322 322 314 309 312 313 306 302 301 300 299 299 299 300 300 301 301 302 302 302 302 302 302 302 302 302 301 301 301 301 301 301 300 300 301 300 299 299 299 299 299 298 298 298 298 297 296 294 294 293 293 293 293 294 293 293 293 293 293 293 293 293 293 292 292 292 292 292 292 291 291 291 291 291 291 291 290 290 290 290 290 290
306 310 316 315 315 316 315 316 316 316 319 322 318 315 315 319 323 320 313 314 313 307 304 301 300 300 299 299 300 300 300 300 301 301 301 302 302 302 301 301 301 301 301 301 300 300 300 299 300 300 299 298 298 297 297 297 296 296 296 295 295 294 293 293 293 293 293 293 293 293 292 292 292 292 292 292 292 292 292 292 292 291 291 291 291 291 291 291 290 290 290 290 290 290 289 289 289
308 318 320 317 319 317 316 318 317 319 324 319 312 312 313 317 322 320 314 312 309 307 306 303 300 300 300 299 299 299 299 300 300 301 301 301 301 301 301 301 301 301 300 300 299 299 299 298 299 299 298 297 296 296 296 296 295 295 294 294 294 293 293 293 293 293 293 292 292 292 292 292 292 292 292 292 292 292 291 291 291 291 291 291 291 290 290 290 290 290 290 290 289 289 289 289 289
312 320 320 321 324 320 320 321 317 320 321 313 309 311 313 315 319 318 316 313 307 304 303 302 301 301 300 300 299 299 299 300 300 301 301 301 301 301 300 301 301 300 299 299 299 298 298 297 297 298 297 296 295 295 295 295 295 294 294 294 294 294 294 294 293 293 293 293 293 293 293 293 293 293 293 293 292 292 291 291 291 290 290 290 290 290 289 289 289 289 289 289 289 289 289 289 288
314 318 320 323 326 325 327 322 316 317 315 309 308 311 314 316 315 314 312 308 303 300 301 302 302 301 301 301 300 299 299 299 300 301 301 301 300 300 300 300 300 299 299 298 298 297 297 297 296 297 297 295 295 295 294 295 295 294 294 294 294 294 294 294 293 293 293 293 293 293 294 294 293 293 293 293 292 291 291 291 291 290 290 290 290 290 289 289 289 289 289 289 288 288 288 288 288
313 317 318 320 325 325 326 323 320 319 316 311 309 311 319 320 313 307 302 299 298 300 302 302 301 302 302 301 300 299 299 299 300 300 300 300 300 300 300 300 299 299 298 298 297 296 296 296 295 296 296 295 294 294 294 294 294 294 293 293 294 293 293 293 293 293 293 293 293 293 293 293 293 293 292 292 291 291 291 291 290 290 290 290 290 290 289 289 289 289 289 289 288 288 288 288 288
312 312 315 318 321 320 318 318 318 316 317 315 312 313 319 316 308 301 298 298 298 299 301 301 301 301 301 300 299 299 299 300 299 300 300 300 300 299 299 299 298 298 297 297 296 296 296 295 295 295 295 295 294 294 294 294 293 293 293 293 293 293 293 293 293 292 292 292 292 292 292 292 292 291 291 291 291 290 290 290 290 290 290 290 289 289 289 289 289 289 289 289 288 288 288 288 288
312 312 317 318 314 316 318 315 312 313 316 317 314 316 317 313 309 305 301 302 301 299 299 300 300 300 300 300 300 300 300 300 300 300 300 300 299 299 298 298 297 297 297 296 295 295 295 295 295 295 295 294 294 293 293 293 293 293 293 293 293 292 292 292 292 292 292 292 292 291 291 291 290 290 290 290 290 289 289 289 289 289 289 289 289 289 288 288 288 288 288 288 288 288 288 288 288
316 317 318 314 311 315 319 318 316 316 318 317 316 317 317 317 315 309 305 306 305 300 298 298 298 299 299 299 300 301 300 300 301 300 300 299 299 298 297 297 296 296 296 296 295 294 294 294 294 294 294 294 293 293 293 293 292 292 292 292 292 292 292 292 292 291 291 290 290 290 289 289 289 289 289 289 289 288 288 288 288 288 288 288 288 288 288 288 288 288 288 288 288 288 288 288 288
314 314 312 312 316 318 317 318 320 319 318 319 319 317 315 316 317 313 311 313 310 302 299 298 298 298 298 300 301 301 300 301 300 300 299 298 298 297 297 296 296 296 295 295 294 294 293 293 293 293 293 293 293 292 292 292 292 292 292 292 292 292 291 291 291 290 289 289 289 289 289 289 289 288 288 288 288 288 288 288 288 288 288 288 288 288 288 288 288 287 287 287 287 287 287 287 287
308 310 310 312 316 318 317 318 319 319 318 318 319 317 315 316 317 316 317 315 309 303 300 299 298 298 299 300 301 301 301 301 300 299 299 298 297 297 297 297 296 296 295 294 294 293 293 293 292 292 292 292 292 292 292 292 292 292 292 292 291 291 290 290 289 289 289 288 288 288 288 288 288 288 288 288 288 288 288 288 288 288 288 288 288 287 287 287 287 287 287 287 287 287 287 287 287
312 314 315 314 313 314 316 315 316 319 319 318 317 316 316 317 315 316 320 316 306 303 303 300 298 299 300 300 301 301 301 300 300 299 298 298 298 297 296 296 296 295 294 293 293 292 292 292 292 291 291 291 291 292 292 292 292 292 291 291 291 290 290 289 289 288 288 288 288 288 288 288 288 288 288 288 288 288 288 288 288 288 288 287 287 287 287 287 287 287 286 286 286 286 286 286 286
317 317 318 316 314 315 316 314 314 315 317 318 317 315 316 316 311 312 316 310 302 301 302 300 298 299 300 299 300 300 300 300 299 298 298 298 297 297 296 296 295 294 293 292 292 291 291 291 291 291 291 291 291 292 292 291 291 291 291 290 290 289 289 288 288 288 288 288 288 288 288 288 288 288 288 288 288 288 288 288 288 288 287 287 287 287 287 286 286 286 286 286 286 286 286 286 286
Wind_Speed
6 5 4 3 3 2 3 3 2 2 3 2 1 0 1 2 1 2 2 2 1 1 2 2 2 6 2 1 3 4 4 3 2 2 0 1 3 4 6 6 4 3 1 5 8 10 14 15 15 15 15 16 15 14 13 13 11 10 8 8 7 6 7 7 7 6 6 5 4 2 1 2 3 3 3 2 1 2 4 4 5 5 4 2 0 1 2 2 1 1 1 1 2 2 3 3 3
6 5 4 3 4 2 1 4 2 2 4 3 1 2 2 2 1 2 4 2 2 1 1 2 3 5 4 3 3 3 3 4 3 1 2 1 2 3 5 6 4 3 1 4 7 9 11 14 14 14 14 15 15 15 13 12 11 10 8 7 7 7 7 6 7 7 6 5 3 2 1 3 4 5 4 2 1 1 3 4 4 4 4 3 1 1 2 2 2 2 1 2 2 2 3 3 3
6 5 5 3 4 4 2 4 2 1 4 2 2 3 1 1 3 4 5 3 2 4 1 0 2 4 3 1 2 0 1 2 2 2 2 1 2 3 4 4 4 3 1 3 5 8 10 12 14 14 13 13 14 14 13 12 11 9 8 7 7 7 7 7 8 8 7 5 3 2 0 2 4 5 4 2 1 1 3 4 4 4 4 3 2 1 2 3 4 3 3 3 4 4 5 6 6
7 6 6 3 3 4 3 3 1 2 3 2 1 2 2 2 4 5 4 4 5 3 1 1 0 1 1 2 1 1 2 3 2 2 2 2 2 3 4 4 4 3 1 2 4 6 9 10 12 13 13 13 12 12 13 13 11 9 8 7 7 7 7 7 8 8 7 5 3 2 1 2 4 3 1 1 2 2 1 3 5 5 4 3 3 2 3 4 4 4 5 5 6 6 7 8 8
7 7 8 4 2 2 2 3 2 3 2 3 1 2 3 4 4 5 5 6 4 1 1 3 1 0 2 2 1 1 2 4 4 3 2 3 2 3 4 5 4 3 3 1 3 5 8 10 11 12 13 13 12 12 12 13 11 9 8 8 7 7 7 8 9 8 7 6 4 2 1 2 3 2 2 1 2 4 4 3 5 4 3 2 2 3 4 5 6 7 7 7 7 8 9 10 10
8 7 8 6 5 3 2 3 2 2 3 4 2 2 4 4 5 6 7 4 3 2 2 3 1 1 1 1 2 1 3 3 4 2 2 3 1 2 4 5 5 4 3 1 1 4 6 9 10 11 13 13 13 13 12 12 11 10 8 7 7 7 7 8 9 9 8 6 5 2 1 2 2 2 3 3 3 4 5 4 3 3 1 1 3 5 6 8 9 10 11 10 10 10 11 12 13
8 6 6 5 5 4 3 2 3 2 2 4 2 3 4 4 4 6 6 3 3 3 2 2 1 2 0 2 3 2 4 3 4 4 5 3 1 2 4 5 5 4 4 2 0 3 5 8 10 11 12 13 13 13 12 11 11 10 9 8 7 7 7 8 9 9 8 7 5 3 2 2 2 3 4 4 4 3 4 3 2 1 1 2 4 6 8 10 11 13 11 9 9 10 12 14 15
8 6 4 3 3 4 3 2 2 2 0 3 3 5 5 5 3 3 2 2 3 2 2 2 0 1 0 4 4 3 5 4 6 7 5 2 2 2 4 5 5 5 4 2 1 2 4 6 8 11 12 13 13 13 12 11 11 10 10 9 8 7 7 8 9 9 8 7 6 4 2 3 3 4 4 5 4 2 2 2 1 1 2 3 5 7 10 12 13 14 12 10 7 6 8 12 13
8 5 3 3 2 3 2 1 1 2 3 3 4 7 7 5 2 3 1 1 2 3 3 1 1 2 2 5 4 5 6 6 8 9 7 2 2 3 4 4 4 4 4 3 1 1 3 5 7 10 11 13 14 13 12 11 12 11 10 10 9 8 7 7 8 9 9 8 6 4 3 4 4 5 5 5 5 4 3 3 2 3 4 5 6 9 12 12 12 13 13 12 9 6 6 8 9
8 6 3 3 2 2 2 1 1 2 4 4 6 9 7 3 2 2 1 1 2 3 4 2 2 1 3 5 3 6 6 7 10 11 10 6 1 3 4 3 3 3 4 5 3 0 2 4 6 8 10 13 14 13 12 12 13 12 10 10 9 9 8 7 7 8 8 8 7 5 4 4 4 6 7 7 6 6 5 5 5 5 6 6 7 10 12 12 12 12 12 11 9 8 7 6 6
5 5 4 3 3 2 1 3 2 3 4 5 5 5 3 3 2 1 0 2 2 4 4 2 2 2 3 4 2 5 5 6 9 11 11 9 3 2 4 3 1 1 2 4 4 1 1 3 4 7 9 11 13 13 12 12 12 12 11 10 9 9 8 7 7 7 8 8 8 7 5 5 5 7 8 7 7 7 6 7 7 6 6 7 9 11 12 12 12 11 10 10 9 9 7 6 6
3 2 3 4 2 1 1 2 3 5 5 4 1 3 4 1 1 1 0 2 3 4 3 1 1 2 2 2 4 3 3 7 11 10 10 9 6 3 4 4 3 2 2 2 4 2 1 2 3 5 7 10 12 13 13 13 13 12 11 11 10 9 9 8 8 8 8 8 9 8 6 6 6 7 8 8 9 8 8 8 8 7 6 8 11 12 12 12 12 11 9 9 9 8 7 6 6
3 2 4 3 2 2 2 1 3 4 4 1 1 4 5 2 1 1 1 2 4 2 3 3 3 2 1 3 4 2 3 13 15 11 11 9 7 5 5 6 6 6 5 2 1 1 1 2 3 4 6 9 11 13 14 14 14 14 13 11 11 10 9 9 9 9 9 9 9 8 7 7 7 8 9 9 9 9 10 10 9 8 8 10 11 12 12 12 11 10 9 8 8 7 7 6 5
4 3 4 3 1 1 3 0 2 1 1 2 2 5 6 3 2 3 2 2 2 2 3 6 4 2 2 3 4 6 10 15 14 12 11 8 6 4 5 7 8 8 7 5 3 1 2 3 4 4 6 8 10 12 14 15 16 16 14 12 12 12 10 9 9 10 9 9 9 9 8 7 7 9 9 9 10 11 11 11 10 9 9 11 12 12 12 11 10 9 8 8 8 7 6 5 4
5 4 4 3 2 1 2 1 1 3 2 3 2 9 10 3 4 6 3 2 2 2 5 7 3 3 2 2 6 11 13 14 13 11 8 5 3 2 3 5 7 9 9 8 6 3 3 5 5 5 6 7 8 11 13 15 15 16 15 13 12 12 11 10 10 10 10 10 10 10 9 8 7 8 9 10 11 11 11 11 10 10 10 11 12 12 11 11 10 8 8 8 8 7 6 4 4
5 3 4 3 1 1 2 2 1 3 2 3 1 10 9 3 5 6 3 4 6 7 7 7 5 6 6 6 9 12 14 16 14 11 7 5 3 3 3 3 5 7 10 10 8 6 5 6 7 6 6 7 7 9 11 14 15 16 15 13 13 13 11 11 11 10 11 11 12 11 11 10 9 9 10 11 11 11 11 12 12 11 11 12 13 13 11 10 9 8 7 7 7 7 5 4 3
4 4 4 2 0 1 3 4 3 2 3 4 3 9 5 3 5 5 6 8 9 9 9 9 9 9 10 10 9 13 18 18 13 10 9 8 6 5 4 3 4 5 8 10 10 9 7 7 8 8 8 8 8 8 10 12 15 15 15 14 14 14 13 11 10 10 11 11 12 13 13 12 12 11 12 12 12 13 12 12 13 13 13 13 14 14 11 10 9 7 6 6 6 6 5 4 3
2 3 3 1 2 3 4 6 5 3 2 4 6 8 2 4 7 7 7 6 8 11 12 11 8 6 6 8 10 16 19 15 10 9 10 10 8 6 6 5 5 5 7 9 11 11 10 8 8 9 9 9 8 8 9 11 13 14 15 14 14 14 13 12 11 11 10 11 11 13 14 14 13 13 13 13 13 14 13 13 14 14 15 14 14 14 12 11 10 7 6 5 5 6 6 4 3
3 3 2 2 5 4 5 6 6 4 3 7 9 7 2 6 9 8 5 6 10 11 12 11 8 5 4 9 15 18 15 10 9 9 8 9 8 7 7 7 6 6 7 8 10 11 11 10 9 9 9 9 9 8 8 10 11 13 14 14 15 15 16 16 15 13 12 12 12 12 13 14 14 13 13 14 15 15 14 15 14 14 15 14 14 14 12 12 11 9 7 5 4 5 6 5 4
2 4 1 4 5 4 5 6 5 5 6 8 9 7 6 8 8 6 5 8 9 6 8 9 9 11 12 16 18 15 10 8 8 7 6 6 7 7 7 7 7 7 7 8 9 10 11 11 10 10 10 9 9 8 8 8 10 11 12 14 14 15 15 16 17 16 15 15 14 12 12 13 13 14 14 14 14 14 14 14 13 13 14 14 14 14 13 15 15 12 9 7 5 4 5 6 5
2 4 3 4 4 2 3 3 4 5 6 7 9 9 9 8 7 6 4 6 6 4 7 9 12 17 17 17 14 11 9 6 6 5 3 2 3 4 5 5 6 7 7 8 9 10 11 11 11 10 10 10 8 8 7 7 8 10 11 11 12 15 14 13 14 15 16 17 15 14 13 13 13 14 15 14 13 13 12 12 13 13 14 14 14 14 15 18 17 14 12 10 7 4 4 6 6
3 3 3 5 5 2 3 2 4 5 6 8 9 8 8 8 8 7 4 4 5 6 10 14 15 16 14 11 8 7 5 2 2 2 3 2 2 2 3 4 5 7 8 9 10 11 11 11 11 11 11 10 9 7 7 7 7 8 9 9 11 16 17 15 15 14 14 15 14 14 14 14 13 14 15 14 14 12 11 11 13 12 12 13 13 15 16 17 16 16 15 14 9 6 5 6 7
1 2 2 4 5 4 5 5 6 8 8 9 9 9 11 10 9 7 4 6 9 11 13 15 13 10 7 5 3 2 2 3 3 3 4 4 4 5 5 6 6 8 9 11 11 11 11 11 12 12 12 11 10 8 7 7 7 7 7 8 9 12 15 16 17 16 15 16 17 16 13 13 13 13 13 11 11 11 9 10 12 11 10 12 14 16 17 16 16 16 17 16 11 8 7 7 8
2 2 2 1 4 5 6 8 9 12 13 14 13 12 13 10 6 6 6 7 10 10 9 8 6 4 3 2 1 2 2 2 3 4 5 6 7 8 9 9 9 11 11 12 11 11 12 11 12 13 13 13 11 10 8 7 7 6 5 8 11 11 12 13 15 18 16 14 19 19 12 11 13 13 12 9 8 10 10 9 10 10 11 14 15 15 15 14 14 15 16 15 11 10 9 9 9
4 3 2 0 4 6 9 11 13 15 16 17 14 12 16 13 8 8 7 7 6 4 4 3 2 2 4 4 3 2 2 2 3 3 4 6 8 9 10 10 11 11 12 11 10 9 10 11 12 14 15 14 13 11 10 8 7 6 5 8 10 10 10 11 12 15 15 11 14 18 13 9 11 13 15 13 11 13 13 9 10 12 13 13 15 15 13 12 13 14 15 14 12 11 10 10 10
4 3 2 2 6 9 11 13 14 15 15 14 10 12 15 9 4 4 2 2 3 3 4 4 4 4 3 2 2 3 3 3 3 3 3 5 6 8 8 9 9 9 9 8 8 7 6 8 11 14 16 15 14 13 11 10 8 7 6 7 9 10 9 13 14 13 13 12 12 14 14 11 10 11 11 10 8 10 12 9 11 13 11 11 13 12 11 11 12 12 14 15 13 11 9 9 10
2 1 4 5 9 12 11 13 17 16 15 13 9 10 10 1 1 2 3 5 5 5 6 5 5 4 1 2 2 3 4 4 4 4 4 5 5 5 6 6 7 7 7 6 5 3 2 6 10 13 15 14 14 13 12 12 10 8 8 8 10 9 8 13 15 12 11 13 12 10 12 11 10 10 9 7 3 5 9 8 10 10 10 9 8 8 9 9 10 10 12 13 11 9 9 9 9
1 3 5 7 9 12 12 14 16 11 9 9 7 8 5 2 2 2 4 5 6 6 5 5 4 2 1 1 1 2 4 4 5 5 4 4 5 5 5 5 5 5 5 4 4 4 1 3 8 11 12 13 12 12 12 11 10 8 9 10 13 12 10 12 14 13 12 12 10 8 9 8 7 8 10 10 6 5 6 6 6 7 8 5 5 8 8 7 9 10 11 12 11 10 9 9 9
2 4 4 7 8 9 9 7 5 2 3 4 2 5 5 1 1 1 1 5 6 6 5 4 3 2 1 0 1 2 2 3 4 5 4 5 5 6 5 5 5 5 5 5 5 5 3 2 5 7 10 11 12 12 11 11 12 13 12 11 11 12 11 10 11 12 13 13 10 6 8 8 6 6 8 8 8 8 8 8 5 4 6 5 7 9 8 7 8 10 11 12 13 12 11 11 11
2 3 2 5 7 6 4 0 2 3 3 2 2 3 5 3 2 3 1 5 5 4 4 3 2 2 1 1 1 1 1 2 3 3 4 5 5 5 5 5 5 6 6 6 5 4 4 3 4 5 7 9 10 12 12 12 13 13 12 10 8 8 9 7 8 10 11 13 11 8 8 9 8 7 7 7 8 8 9 10 6 4 6 9 10 10 8 7 7 10 12 12 13 13 13 13 13
1 1 2 2 2 4 5 3 3 4 3 4 4 2 5 3 1 5 3 6 5 4 3 3 3 3 2 2 1 0 1 1 2 3 3 3 3 3 4 4 5 5 5 5 4 5 5 4 4 5 6 7 8 10 12 13 12 12 11 9 9 8 10 9 8 10 10 10 10 9 8 7 6 8 9 9 8 7 7 8 6 4 5 7 8 8 10 10 10 12 14 14 14 14 14 14 15
2 1 3 2 1 4 8 6 2 2 2 3 5 2 5 3 3 7 6 4 6 4 4 4 4 3 3 2 2 1 1 2 2 1 1 2 2 2 3 3 4 4 4 4 6 6 5 6 6 6 6 7 8 8 10 11 12 13 13 10 9 8 8 10 8 7 8 7 7 7 7 5 4 5 7 7 6 5 5 5 5 6 6 6 6 8 11 13 13 13 15 16 17 18 19 19 20
3 0 3 3 2 2 6 4 1 1 1 1 2 2 4 2 4 6 7 3 5 5 5 5 5 4 4 3 3 3 2 2 1 1 1 2 2 2 2 3 4 4 5 6 6 6 6 7 7 6 7 7 8 9 9 10 11 12 13 11 10 8 6 8 7 5 5 6 6 5 6 5 3 2 3 3 3 4 5 6 6 7 9 9 10 11 11 11 10 12 15 18 19 21 23 23 23
3 1 2 3 3 2 3 4 3 4 3 0 2 1 5 4 5 4 6 4 5 6 7 6 6 5 5 4 3 3 2 3 2 2 3 2 2 2 3 3 4 5 6 6 6 6 7 8 8 8 9 9 9 9 8 9 10 10 11 11 10 9 7 6 6 4 2 3 5 4 4 5 4 3 3 3 4 5 7 8 8 8 9 9 10 11 11 11 11 12 15 17 18 20 21 22 24
3 2 2 3 3 2 4 4 2 4 3 1 3 2 8 8 4 3 6 2 4 6 8 7 7 6 5 4 4 3 3 3 3 3 3 3 3 3 4 5 6 6 7 8 8 8 9 10 10 11 12 12 11 10 9 9 8 9 10 10 9 9 8 7 6 6 4 3 4 4 4 5 5 4 5 5 6 6 6 7 8 8 10 11 12 12 13 14 15 16 17 17 18 19 20 21 23
5 5 4 3 3 4 5 5 3 1 2 3 5 6 7 9 6 3 5 2 4 7 8 7 7 6 6 5 5 5 4 4 5 4 4 4 5 5 6 7 8 9 9 10 10 10 12 12 12 13 15 14 13 12 11 9 8 9 9 8 9 9 7 6 5 4 4 4 3 3 3 3 3 5 6 7 7 7 8 8 9 10 12 15 16 17 18 18 19 20 20 19 19 20 20 21 23
4 3 2 3 4 6 5 5 4 1 1 5 6 6 6 9 8 4 3 2 5 7 8 7 7 7 7 7 7 6 6 7 6 6 6 6 7 8 9 10 10 11 12 12 12 13 14 14 13 15 16 13 11 11 10 8 8 8 8 7 8 10 7 5 5 5 4 3 3 2 2 1 2 3 4 5 6 7 7 8 9 10 12 14 15 16 17 18 19 19 18 19 19 18 19 20 21
2 2 3 3 4 7 6 4 4 0 2 5 4 4 7 9 6 3 2 3 3 5 7 7 8 8 8 8 8 8 8 9 8 8 8 8 9 10 11 12 13 14 15 15 15 17 17 16 17 17 15 12 11 10 9 10 10 9 9 10 11 11 10 8 9 10 8 6 6 5 5 4 2 1 1 0 2 2 3 4 5 6 7 8 9 10 11 12 13 13 14 14 15 15 15 16 18
2 2 2 4 4 3 5 4 4 2 3 4 4 3 8 8 2 3 4 3 3 3 5 7 9 10 10 10 10 11 11 11 11 11 11 12 12 13 14 16 17 18 19 20 20 20 20 20 20 19 16 15 14 13 13 14 14 13 13 13 13 14 14 11 12 12 9 7 7 7 7 6 5 4 4 4 3 3 4 4 4 5 6 6 7 8 9 9 10 11 11 11 12 12 12 14 15
2 4 3 5 3 1 3 4 3 1 1 2 2 2 7 7 1 4 5 5 6 5 6 8 9 10 11 11 12 13 14 14 15 15 16 16 17 18 19 20 21 22 23 23 22 22 23 23 22 21 19 19 18 16 16 16 16 15 15 15 14 15 16 13 12 12 10 8 9 9 9 8 7 6 7 6 6 7 7 8 8 9 10 10 11 11 12 12 12 13 14 14 13 13 12 13 14
2 5 6 5 3 5 6 3 3 2 3 1 1 3 5 4 2 1 3 4 6 5 7 8 8 9 10 11 12 13 15 17 18 19 19 20 21 22 22 23 23 23 24 24 23 23 23 22 22 21 20 20 19 18 17 15 15 15 14 14 14 15 15 13 11 12 11 9 10 10 11 11 10 9 9 9 9 10 10 10 11 11 12 12 13 14 15 15 15 16 16 17 17 17 16 16 15
3 5 9 9 7 8 6 1 3 3 3 2 1 3 4 3 2 1 1 1 2 3 6 7 7 8 9 11 13 14 15 17 19 21 22 23 24 24 24 24 23 23 23 23 22 21 21 21 20 19 19 19 18 17 15 13 13 13 13 13 13 13 14 13 13 13 12 11 12 12 13 13 13 12 13 12 13 12 12 12 12 12 12 13 13 14 14 15 16 17 17 18 18 18 18 18 17
2 5 8 9 7 6 4 3 2 0 2 2 2 1 4 5 3 2 2 1 1 1 3 5 7 8 10 12 13 14 15 18 20 22 23 24 24 24 24 23 22 22 22 20 19 19 18 18 17 17 17 17 17 16 14 11 11 12 12 13 13 12 13 15 16 16 15 14 14 14 14 14 14 14 14 14 14 14 14 14 14 14 13 14 14 14 14 15 16 16 17 17 17 18 18 18 19
3 4 5 6 6 6 5 5 4 3 2 3 2 2 3 4 3 3 2 2 2 2 2 4 7 10 11 13 13 15 17 19 21 22 23 23 23 23 23 22 21 21 20 19 17 17 16 16 16 16 16 17 17 16 14 12 11 12 11 11 13 13 14 17 17 17 16 15 14 14 15 14 14 14 14 14 14 14 14 14 14 14 14 14 14 15 15 16 15 15 16 16 17 18 18 19 19
4 3 5 5 5 5 5 6 3 1 1 3 3 2 2 4 3 2 1 3 5 5 5 5 10 13 13 14 14 16 18 20 22 23 23 23 22 22 21 21 20 20 19 17 16 16 15 15 15 15 15 16 17 15 13 12 11 10 10 10 12 15 16 17 17 16 16 13 13 14 14 14 14 14 14 14 13 13 14 14 14 14 14 14 15 15 15 15 15 16 16 17 18 19 19 19 19
4 5 6 5 5 4 4 4 3 2 1 4 5 4 2 4 4 2 0 3 6 5 4 6 13 15 14 16 17 18 20 21 22 23 23 22 21 21 20 19 19 18 17 15 15 14 13 13 12 12 14 14 14 13 11 11 11 10 11 12 14 16 17 16 15 14 14 12 12 13 13 13 13 13 13 13 13 14 14 14 15 15 15 15 15 15 15 16 17 17 18 18 18 18 18 19 19
7 6 5 5 5 4 3 2 3 2 2 5 5 4 3 3 4 3 2 3 4 5 5 7 13 17 18 19 19 20 20 22 23 23 23 22 21 20 19 18 17 16 15 14 13 12 12 11 10 10 13 13 13 12 10 11 12 11 13 13 15 16 15 13 12 12 12 11 11 12 13 13 13 13 13 13 14 14 15 15 16 16 16 16 16 16 17 17 17 18 18 18 18 19 18 18 18
6 3 4 4 2 3 3 4 3 1 4 5 3 1 2 3 4 3 4 4 4 6 7 10 15 20 23 22 21 21 21 22 23 23 22 21 20 19 18 17 16 15 14 13 12 12 11 11 8 9 13 13 12 11 10 11 12 12 13 13 13 14 12 10 10 11 12 12 13 13 12 13 13 13 13 14 15 15 16 16 16 16 16 17 17 17 17 17 16 16 17 17 18 19 19 19 20
4 3 4 3 2 3 2 3 0 2 5 3 3 2 2 5 6 5 5 5 5 6 7 12 20 25 26 25 23 22 21 22 23 23 22 21 20 19 17 16 15 14 13 12 12 11 11 11 8 8 12 13 11 10 10 9 10 10 10 10 11 11 10 9 10 11 12 13 13 13 13 14 14 15 15 16 17 17 18 17 18 18 18 18 18 17 17 17 17 17 17 17 18 18 18 19 19
4 4 4 3 2 2 2 3 2 3 3 2 3 1 1 3 5 4 4 3 4 6 6 11 23 30 30 29 26 24 23 23 23 23 22 21 19 18 17 16 15 14 13 12 12 11 10 10 8 7 10 12 10 9 8 8 8 8 9 9 9 9 9 10 11 12 13 13 14 14 15 15 16 16 17 18 18 18 19 19 19 19 19 19 19 19 19 19 19 19 19 19 19 19 19 19 19
3 3 4 4 4 3 3 3 3 3 2 2 3 1 2 3 2 3 4 4 5 6 7 10 20 28 30 29 27 26 25 24 24 23 22 21 20 18 17 16 15 14 13 12 12 11 10 10 9 8 9 10 9 8 7 6 7 7 7 8 8 9 9 9 10 11 11 12 12 13 14 14 15 16 16 17 17 18 18 19 19 19 20 20 20 20 21 21 21 22 22 22 22 22 22 22 22
1 2 4 2 3 4 1 2 5 2 2 3 1 2 4 3 2 4 4 3 4 3 7 11 17 24 27 28 28 28 27 26 26 25 23 22 21 19 18 17 16 15 14 13 12 11 10 10 10 9 9 9 8 7 7 6 6 6 6 6 7 7 8 9 9 10 11 11 12 13 14 14 15 15 15 16 17 17 18 19 19 20 20 21 22 22 23 23 23 24 24 24 25 25 25 25 25
2 2 2 4 4 5 2 1 2 3 2 3 1 3 4 1 2 3 4 3 3 1 6 13 18 23 26 29 31 31 30 29 28 27 25 24 23 21 20 19 17 16 15 14 13 12 11 10 10 9 9 9 8 7 6 5 5 4 4 5 6 6 7 7 8 9 10 10 11 12 12 12 12 13 13 13 14 15 15 16 16 17 18 19 19 20 21 22 22 23 24 24 25 26 26 27 28
4 3 4 3 2 3 3 0 2 2 3 3 1 3 4 1 2 3 3 3 3 2 5 11 16 22 27 31 34 34 33 31 29 28 26 25 24 23 22 20 18 17 15 15 14 14 13 11 11 10 9 9 8 8 7 5 4 3 2 3 3 3 4 5 6 7 8 9 10 11 11 11 11 11 11 11 12 12 13 13 14 15 16 17 18 19 20 21 22 23 23 24 26 26 27 28 29
4 4 2 2 2 1 2 1 0 1 3 4 2 4 4 4 4 2 3 8 7 5 6 8 15 24 30 34 37 37 35 33 32 31 29 27 26 24 23 21 19 18 17 16 16 15 15 14 13 12 11 10 9 8 7 6 4 3 2 1 1 3 6 8 9 10 11 12 12 13 13 13 13 12 13 13 13 14 15 15 16 17 18 19 20 22 23 24 25 26 27 27 28 29 31 31 31
4 2 2 2 2 3 2 2 2 2 3 4 5 6 4 5 6 6 9 11 10 9 8 10 18 28 35 39 41 41 39 38 36 34 31 29 27 25 23 22 21 20 19 18 18 17 16 16 15 13 12 11 10 8 7 6 5 3 1 2 5 7 9 11 12 13 14 14 14 15 14 14 14 14 15 16 16 17 18 19 20 21 22 23 24 25 26 27 28 29 30 31 32 33 34 35 35
2 2 1 1 1 2 0 0 2 3 2 2 5 8 6 4 4 7 9 8 10 14 13 13 22 32 37 40 42 43 42 40 38 35 32 30 28 26 24 22 21 21 20 20 19 18 18 17 16 14 13 11 10 9 8 6 3 1 3 6 8 9 11 13 14 14 15 16 16 16 16 16 17 17 18 19 20 21 22 23 24 24 25 26 27 28 29 30 31 32 33 34 36 37 37 39 39
5 4 4 4 3 3 1 2 1 2 2 3 4 8 9 4 2 4 5 4 8 15 14 14 22 30 31 32 35 37 39 39 37 34 31 29 29 28 26 25 24 24 23 22 21 20 19 18 17 15 14 12 11 10 7 4 1 2 5 7 9 11 12 13 14 16 17 17 18 18 18 19 19 19 20 20 21 22 23 24 25 26 28 29 30 31 32 34 35 35 37 37 39 40 41 41 42
Wind_Direction
342 343 344 338 346 350 3 18 91 24 62 96 314 137 245 241 288 291 279 286 272 295 221 245 175 161 187 236 239 257 233 205 191 108 112 280 6 358 351 351 339 0 105 171 189 195 191 192 195 193 191 191 192 191 194 197 201 209 212 217 226 235 229 228 222 209 197 186 173 157 88 24 12 1 349 337 280 193 178 174 164 151 148 149 167 279 293 309 305 296 32 31 25 25 19 12 8
0 10 24 24 18 32 10 28 95 346 51 92 271 191 280 304 311 240 226 223 185 346 334 233 201 207 249 261 272 277 249 243 233 265 320 324 14 357 352 352 340 354 99 160 184 196 195 193 194 194 194 193 193 195 198 198 201 207 211 217 225 234 228 222 211 196 188 185 177 167 20 3 357 347 338 334 295 209 181 172 166 155 151 159 160 236 281 326 336 310 293 301 301 309 315 313 310
20 26 30 26 31 57 96 39 85 71 74 101 275 236 302 307 236 237 228 232 297 327 338 180 232 231 235 258 296 204 334 310 272 304 353 58 40 17 5 1 351 349 64 147 175 193 199 198 196 194 195 195 194 195 198 198 200 206 209 213 218 223 220 215 204 194 190 190 188 181 22 8 0 348 343 1 112 150 176 167 153 150 156 180 199 227 288 342 354 340 304 281 279 285 288 291 289
28 28 18 13 54 56 71 43 117 118 111 156 307 260 257 209 238 253 260 311 325 318 112 30 343 219 275 319 288 217 343 9 37 23 63 70 44 38 28 20 12 358 11 139 162 185 199 203 201 197 197 196 196 195 194 197 201 205 205 204 208 212 213 210 202 196 197 201 203 204 325 359 358 341 332 82 113 96 137 162 151 149 150 175 211 266 310 324 330 318 298 281 280 283 284 287 288
17 17 13 17 107 61 79 74 95 93 159 178 112 250 238 219 245 269 311 345 342 82 93 354 44 289 306 314 282 239 12 36 43 45 60 43 47 62 51 37 34 17 13 93 155 173 193 204 206 202 200 198 200 200 196 199 202 201 199 199 203 205 206 209 206 200 202 208 212 222 306 340 339 294 207 169 116 78 78 135 147 139 129 158 224 283 302 301 301 296 288 282 281 284 285 285 284
14 15 20 51 90 83 110 96 98 91 201 176 135 238 240 228 244 283 321 7 66 69 3 355 43 323 297 316 309 319 11 15 19 19 354 354 33 82 80 62 57 40 25 24 149 170 185 200 207 205 204 202 203 205 203 204 204 201 197 199 204 202 203 213 212 206 207 211 213 222 258 316 312 239 206 181 139 91 87 114 135 136 132 272 280 291 297 298 298 290 282 280 279 278 279 280 280
11 9 16 67 71 48 104 120 164 164 192 176 172 234 245 263 257 291 325 49 67 31 21 17 2 329 108 344 330 0 3 359 10 356 335 317 261 120 111 87 78 62 44 29 123 178 184 193 204 207 207 207 208 210 208 207 208 204 199 202 206 205 206 214 218 213 214 216 219 224 245 302 277 224 214 187 154 109 107 123 140 181 248 284 295 304 309 312 312 301 297 298 290 280 274 274 276
9 4 15 80 43 27 88 116 200 200 192 223 242 245 259 296 272 260 313 73 17 359 10 2 355 16 9 325 328 13 13 16 16 4 351 323 227 165 139 108 94 78 59 38 20 193 194 193 199 205 208 210 213 215 211 209 214 211 201 206 209 210 211 214 221 221 219 220 225 226 253 292 261 231 221 200 179 144 145 151 166 256 283 298 311 318 320 324 321 313 322 338 332 303 278 274 277
11 8 30 75 72 41 48 71 231 246 267 263 250 259 277 305 253 221 245 73 348 330 335 324 187 8 324 315 339 37 36 52 38 27 21 15 199 180 158 127 101 83 66 44 22 216 209 201 200 204 208 212 217 219 214 208 217 219 205 206 211 214 216 215 220 222 222 223 227 229 256 279 257 243 234 224 216 199 203 216 244 284 294 302 312 316 320 324 322 320 332 343 343 329 301 287 285
12 26 72 81 80 64 8 243 228 253 254 270 266 279 285 277 234 226 246 48 354 315 323 307 226 284 316 315 13 45 48 68 47 36 30 32 159 200 181 150 113 82 59 39 31 289 230 213 207 206 207 211 217 221 216 210 217 222 212 210 212 217 219 219 222 222 223 224 226 228 248 269 263 251 242 237 233 225 234 246 260 280 291 301 309 313 319 323 325 333 341 341 342 342 330 319 312
10 33 77 80 67 98 186 216 269 279 271 296 285 307 317 239 235 215 324 9 332 305 310 319 237 249 316 314 15 38 67 67 35 30 23 19 13 241 220 198 170 60 33 30 31 7 265 230 219 212 210 211 217 221 218 214 220 222 216 215 216 219 220 224 227 223 223 225 227 226 240 264 264 256 250 248 250 248 254 263 270 275 283 300 310 316 321 324 332 345 347 344 345 350 352 346 340
14 25 57 87 104 165 190 209 267 291 303 325 309 11 27 192 183 163 48 348 323 321 322 347 318 312 323 322 5 35 93 23 12 18 10 2 358 305 258 242 235 261 275 8 26 18 300 261 239 225 219 215 217 221 219 214 220 223 218 219 220 220 220 223 227 227 226 227 228 225 230 244 244 246 247 253 258 259 265 273 280 283 288 301 311 318 323 325 339 354 352 348 346 350 357 355 352
65 139 73 93 153 158 143 201 269 308 321 324 232 351 1 285 243 64 92 347 321 356 25 351 316 296 265 307 357 30 338 347 351 352 347 344 342 315 273 254 242 242 239 245 34 18 274 257 254 242 229 221 221 222 220 216 218 224 223 220 220 222 221 220 225 228 228 230 228 222 226 236 239 239 238 248 256 262 270 276 284 292 297 304 310 315 320 325 341 355 355 349 346 351 355 356 1
81 141 96 110 94 139 155 197 294 351 281 259 286 351 353 319 355 19 36 357 329 79 15 333 303 266 298 310 357 354 334 335 335 333 334 331 328 310 271 257 248 241 235 229 215 230 250 245 247 248 242 230 228 227 223 220 220 224 225 224 223 225 222 220 222 224 226 229 227 222 227 236 244 243 238 243 252 263 271 275 286 295 297 299 304 308 314 324 340 353 355 349 344 348 348 352 8
85 111 94 112 61 32 180 156 102 127 204 252 336 352 353 11 30 9 18 20 312 327 329 318 286 271 310 327 339 335 327 322 321 322 323 316 307 297 268 255 251 247 242 238 232 234 247 248 243 244 252 242 235 233 228 222 222 225 226 225 228 232 228 223 220 218 222 226 227 225 226 230 242 248 244 246 253 264 271 276 284 289 290 293 297 301 311 321 334 348 352 349 344 341 338 348 4
82 83 78 84 69 323 195 177 131 126 238 243 346 353 358 18 19 14 4 317 294 303 313 307 285 274 286 307 317 315 312 313 312 303 292 277 262 255 252 251 249 245 244 244 243 244 253 260 253 248 255 254 242 235 231 226 223 225 226 223 229 240 239 231 223 218 221 225 225 224 224 225 231 241 245 249 254 259 268 276 281 283 285 292 295 297 308 321 327 338 348 348 342 332 326 338 350
77 64 73 55 138 229 202 187 179 152 266 265 331 352 357 323 351 5 328 303 293 301 307 309 296 281 285 296 299 298 306 311 306 290 275 257 243 229 226 238 239 235 237 242 244 246 254 265 264 257 257 261 253 237 231 228 225 224 225 224 226 237 241 237 231 225 226 228 226 224 225 227 228 235 241 246 252 256 262 270 277 282 285 291 293 295 307 316 320 330 343 344 334 324 316 321 326
70 82 86 12 195 202 184 184 194 173 277 278 317 341 346 311 331 339 324 292 296 306 310 318 313 299 287 280 285 296 305 308 301 286 268 254 244 227 221 230 235 231 226 230 235 239 246 254 260 259 259 262 262 251 235 229 228 224 223 223 221 228 237 238 238 239 239 239 235 228 225 228 230 234 241 245 251 257 260 267 277 283 287 290 291 298 309 311 314 325 335 334 325 319 309 304 304
77 105 86 240 204 211 197 192 200 190 285 293 313 330 306 304 316 329 322 291 310 316 317 325 323 322 289 283 296 302 305 302 297 289 266 250 241 231 228 231 235 234 228 228 229 233 239 243 247 250 252 257 262 260 248 235 228 226 223 223 220 220 226 230 235 242 247 250 248 239 232 230 230 233 241 245 250 260 266 272 279 285 289 290 293 299 305 307 312 320 328 324 315 313 306 297 291
89 107 102 240 217 231 231 222 231 245 284 299 315 318 299 306 308 309 307 301 307 303 311 318 313 313 307 303 307 309 310 298 291 290 274 252 241 241 238 235 235 233 233 234 234 235 237 238 239 238 238 244 253 257 254 244 233 229 226 224 221 220 227 230 232 235 237 243 247 244 239 236 234 234 239 247 253 260 268 276 283 291 296 296 300 304 303 309 314 315 319 319 310 304 304 296 287
149 137 164 211 188 231 254 243 270 283 291 295 305 308 306 318 313 296 304 315 303 290 309 306 301 306 307 307 309 313 316 305 290 296 300 276 267 264 262 261 253 249 246 244 243 240 239 238 236 232 228 229 238 247 249 246 238 229 229 229 222 225 234 238 240 241 236 239 245 246 241 239 241 239 240 247 253 258 268 278 286 293 299 300 308 312 308 314 319 315 311 311 309 300 304 295 282
161 186 191 173 158 208 284 298 310 307 304 300 300 302 306 314 311 296 281 279 286 302 304 295 294 298 300 300 305 321 335 351 351 3 31 36 9 339 316 308 290 279 269 260 256 249 245 239 234 226 218 216 219 230 235 237 235 223 224 223 216 224 228 232 238 242 246 247 250 251 247 243 242 247 250 249 248 253 262 272 280 284 291 299 308 310 309 315 317 311 305 305 306 305 314 299 277
183 249 219 182 189 238 284 293 304 305 301 297 294 296 299 305 311 305 279 265 283 297 294 289 288 285 282 288 307 348 51 54 42 31 25 21 4 353 336 320 303 290 281 273 266 259 254 243 232 220 209 206 203 210 219 222 226 221 218 206 212 224 220 231 235 232 247 251 249 248 249 253 246 249 260 259 253 252 266 278 273 272 286 297 303 306 308 313 313 310 308 305 303 308 318 306 284
155 262 264 215 239 261 292 296 299 299 292 291 293 291 287 290 301 306 303 287 289 292 286 283 279 261 225 198 165 134 93 47 14 357 351 349 345 342 336 327 313 303 298 293 284 272 262 249 229 213 201 199 197 199 204 207 208 207 201 191 213 229 221 237 238 234 251 256 249 242 237 266 261 253 260 267 278 267 270 282 269 272 294 300 301 302 307 315 321 323 322 316 307 309 317 310 297
164 231 278 194 264 283 298 294 293 293 289 290 291 278 277 285 281 287 304 287 277 271 249 242 218 166 153 154 137 125 79 27 349 344 337 337 336 334 329 322 315 308 308 307 300 285 265 244 220 203 195 194 195 193 192 196 190 187 185 177 205 229 224 232 232 237 254 257 249 235 231 274 269 254 253 258 284 275 257 263 273 284 303 308 304 301 309 322 327 327 326 325 315 310 312 310 301
194 206 281 282 288 296 297 291 290 289 285 285 281 274 283 296 278 274 318 207 192 185 201 183 177 177 146 117 75 45 14 2 340 329 321 328 327 321 318 315 317 316 318 323 316 299 266 231 209 196 191 190 192 190 187 186 175 179 190 180 203 221 216 222 231 240 242 238 244 236 238 261 255 246 248 254 288 275 257 267 277 284 305 312 305 304 315 324 321 318 319 322 319 312 310 310 304
191 232 297 282 292 299 297 288 287 287 283 276 258 270 286 282 190 226 127 148 163 175 191 174 178 194 133 50 16 359 340 335 334 333 326 321 316 316 320 322 327 333 339 343 338 328 257 212 199 192 190 190 191 189 186 181 172 180 185 179 197 206 211 222 232 238 225 225 238 240 240 245 242 244 242 240 263 267 269 284 280 283 295 302 307 311 319 322 319 320 320 320 320 318 316 314 310
4 346 309 292 310 306 291 281 286 290 289 279 243 262 293 135 173 194 164 176 189 196 188 173 178 185 116 26 335 317 311 323 330 329 325 321 329 341 344 343 345 352 355 359 11 28 77 182 191 191 190 190 190 187 186 178 165 170 175 184 194 191 207 220 218 223 218 216 223 222 226 234 236 240 238 233 243 263 266 272 283 287 278 286 318 309 310 316 315 316 318 317 317 322 323 321 317
349 16 327 305 338 323 291 280 301 321 280 300 263 276 316 18 166 103 199 191 190 201 180 170 177 171 165 210 296 289 307 321 323 327 341 352 355 0 1 3 6 3 4 14 24 34 55 120 173 187 187 188 189 181 177 172 172 178 179 185 192 186 201 214 209 215 214 206 208 202 203 215 211 213 226 223 236 255 248 242 251 255 245 258 286 289 298 309 309 309 312 312 312 317 319 318 316
313 39 39 315 346 329 298 214 356 354 275 267 76 292 293 298 333 40 121 177 180 199 170 169 184 175 191 191 262 292 327 317 328 349 4 10 10 12 15 20 19 16 18 21 25 37 57 87 136 167 178 183 187 179 169 169 176 177 173 173 175 175 182 190 197 205 205 202 206 197 184 195 193 196 217 216 225 244 242 237 231 225 243 258 266 274 288 298 301 300 301 306 310 312 312 310 307
313 21 47 353 343 285 294 295 296 334 287 197 134 272 271 241 34 46 102 191 217 228 182 176 183 171 180 168 165 253 12 350 3 16 19 22 28 31 35 41 38 39 36 33 42 56 69 86 113 139 158 167 177 179 171 173 173 162 162 169 172 178 175 175 187 195 198 199 199 198 190 197 201 206 224 226 221 222 222 228 235 254 266 263 264 279 293 294 293 290 292 299 305 304 300 298 298
26 318 305 339 160 270 304 313 261 253 261 158 136 236 279 207 158 39 52 193 224 209 180 176 177 164 160 152 137 133 75 62 47 39 50 47 62 64 67 70 63 64 61 57 61 65 76 88 101 122 138 149 157 162 164 167 168 166 171 172 171 177 171 168 168 169 180 179 171 177 178 179 182 192 210 216 215 213 215 234 254 268 274 270 276 295 298 292 290 295 300 303 304 301 298 299 298
1 200 253 265 206 281 314 333 54 160 190 92 106 223 291 210 168 22 34 163 205 179 167 169 167 157 147 141 136 134 118 125 134 132 119 110 111 103 103 97 87 84 79 78 79 81 87 91 99 112 122 130 138 144 153 159 163 172 177 174 171 173 166 164 158 138 144 161 163 159 164 177 186 188 205 214 224 233 244 262 270 272 278 282 289 295 291 286 291 301 304 301 299 299 301 303 302
312 38 231 245 221 224 294 314 20 63 105 30 3 211 268 252 172 14 19 160 185 162 158 161 156 148 139 134 135 139 146 160 154 143 136 132 138 132 130 120 111 108 103 104 103 102 101 99 102 103 107 112 116 126 138 150 158 165 167 168 173 179 181 177 178 183 165 172 201 206 199 217 242 268 291 288 280 272 267 274 277 278 284 288 290 291 289 294 300 301 298 296 295 297 299 300 300
207 192 210 253 248 230 253 275 325 38 38 334 333 263 270 274 200 42 21 151 173 152 149 150 146 139 135 131 131 134 139 147 133 130 133 136 146 138 135 134 129 128 124 122 117 114 111 105 105 104 105 106 106 111 116 124 138 144 147 156 168 172 177 182 192 203 198 192 208 217 221 229 239 255 273 277 278 279 276 275 273 274 280 283 285 288 293 299 301 298 297 296 297 298 299 299 299
186 194 190 215 242 250 236 250 259 26 357 276 264 251 260 274 261 5 26 103 138 139 140 134 134 129 128 125 120 123 123 125 122 124 131 132 136 135 136 134 131 130 126 123 121 116 111 107 109 108 105 104 105 106 109 116 125 132 140 152 157 151 154 172 182 185 184 186 191 201 220 230 246 262 270 273 276 277 278 276 274 276 277 279 281 285 290 292 291 290 291 292 294 295 297 299 299
158 172 202 211 225 263 256 262 275 164 213 260 250 249 258 261 265 326 17 143 122 130 134 124 128 125 123 123 118 122 120 118 118 125 131 130 131 131 129 127 127 126 122 123 122 113 107 105 105 103 101 102 106 109 114 121 123 128 141 147 141 137 138 144 135 122 117 119 119 118 134 166 247 265 270 273 274 273 274 273 270 270 271 274 277 280 284 286 286 287 287 290 292 293 297 298 298
178 186 250 256 227 258 263 258 291 195 189 266 281 286 277 262 256 329 9 147 107 123 134 128 133 129 126 128 124 126 123 121 125 129 130 128 128 127 125 126 125 121 119 118 114 108 106 105 101 99 102 106 108 112 118 120 120 121 124 123 120 118 116 115 112 104 94 95 99 98 102 102 102 110 94 304 285 282 285 284 278 277 279 282 285 288 292 293 294 294 295 297 299 302 307 305 304
214 161 216 260 239 281 291 286 328 21 177 259 317 312 277 274 252 38 33 92 94 123 150 145 143 137 134 134 131 132 129 128 131 131 130 128 126 126 126 125 122 117 114 111 107 106 107 105 103 104 107 109 108 109 112 110 112 114 111 111 114 114 112 110 106 99 94 96 96 92 90 85 77 73 67 54 36 27 17 8 3 355 345 338 335 332 329 326 325 323 322 324 321 319 320 317 318
186 155 179 246 240 32 281 289 339 13 171 255 321 311 275 276 236 64 48 94 107 120 146 144 144 142 138 138 136 136 136 134 134 131 129 128 126 125 123 118 114 112 109 108 107 107 107 105 105 108 108 107 106 105 105 103 105 108 108 111 115 113 107 103 102 100 96 92 89 85 81 74 65 61 58 48 40 34 27 23 18 12 7 4 0 357 355 354 353 350 347 347 344 342 341 336 337
237 199 209 234 226 212 230 284 330 328 5 22 317 313 285 272 253 59 54 99 107 118 137 133 139 142 140 141 140 141 139 136 135 132 129 127 125 121 117 113 111 110 108 106 106 104 104 103 103 104 104 102 101 99 98 99 102 105 108 111 112 108 106 106 106 101 97 93 87 80 74 67 59 57 55 49 46 41 37 33 28 23 18 14 10 7 7 5 2 0 358 357 355 354 354 351 349
289 230 217 220 221 226 228 336 358 351 353 345 18 326 290 311 318 267 16 81 96 118 134 130 138 145 146 148 145 144 140 136 134 131 129 127 124 120 117 115 113 111 107 104 103 102 101 102 101 101 101 99 97 95 96 98 100 103 104 105 107 110 112 109 99 93 92 89 81 75 71 66 61 57 55 52 50 47 43 41 36 33 28 23 21 16 13 10 7 6 4 2 0 359 358 354 352
293 244 208 209 212 219 208 142 110 192 267 304 45 186 265 314 326 297 322 253 183 140 146 146 150 155 159 158 152 148 142 137 134 131 129 127 124 122 120 118 116 111 107 104 102 102 100 100 100 100 99 97 93 90 93 97 100 106 109 111 113 113 109 99 89 85 83 81 79 77 73 68 63 57 54 51 49 46 43 40 37 33 30 27 25 20 16 15 13 10 7 4 3 1 359 356 356
236 238 157 162 178 192 190 159 174 227 251 324 14 141 253 296 282 286 306 240 232 217 210 182 168 171 171 166 159 152 145 139 135 132 130 128 125 124 122 119 117 112 108 107 106 104 102 101 100 100 98 97 96 97 101 104 106 110 112 113 110 100 93 91 87 85 83 82 80 77 72 68 63 58 55 50 47 44 39 36 33 29 26 23 21 17 16 17 14 10 8 4 2 0 359 359 357
239 205 125 138 156 164 157 141 176 255 40 305 295 151 245 277 269 311 349 257 253 213 207 208 189 185 180 173 165 156 149 143 140 137 134 131 128 125 123 120 117 114 113 112 110 107 106 104 103 104 102 101 102 104 107 105 100 100 97 97 98 93 91 92 91 89 86 81 76 73 68 64 60 54 49 45 40 37 33 30 28 23 21 20 17 14 12 9 5 3 2 1 1 359 358 358 357
195 136 98 81 78 88 98 116 132 65 67 246 242 183 203 274 281 307 53 259 254 208 192 209 199 193 185 179 172 163 156 150 145 143 139 136 132 128 126 124 120 118 117 114 111 109 107 107 108 109 106 104 103 102 103 101 96 94 92 90 92 93 92 93 94 90 84 78 74 70 64 59 54 46 40 34 28 26 23 20 17 14 14 13 11 9 6 2 0 359 358 358 357 356 355 354 354
137 119 76 61 44 47 53 64 95 70 285 248 240 203 190 268 279 239 196 231 212 160 168 204 203 197 191 185 179 170 163 155 150 147 144 140 138 135 132 130 127 123 120 118 116 114 112 111 114 116 111 108 106 105 104 104 100 97 95 94 94 94 93 93 92 87 79 72 66 63 57 51 46 40 34 27 21 18 15 11 9 7 5 2 0 359 358 356 355 353 352 350 349 349 350 349 348
121 97 79 89 354 12 26 357 47 111 254 261 286 296 175 218 261 240 221 227 192 168 177 190 195 198 194 188 184 177 168 160 156 152 149 148 145 141 139 137 133 130 129 129 126 125 123 121 122 124 118 114 112 111 109 107 105 100 98 98 95 94 90 85 78 71 65 57 52 48 43 37 32 26 21 15 12 10 8 4 2 -0 358 356 356 355 354 352 350 348 345 342 342 342 341 340 341
94 90 94 97 349 12 0 313 312 220 248 270 312 329 203 225 254 252 230 216 208 207 203 192 190 192 192 189 186 181 174 166 161 158 156 155 152 149 148 146 142 140 141 140 136 136 133 128 130 132 126 121 118 116 113 110 109 102 96 92 86 80 72 62 54 47 42 35 31 26 19 16 11 6 3 360 358 358 357 354 353 353 352 352 351 350 349 348 345 343 341 340 338 337 336 335 336
144 148 130 127 95 66 288 271 273 265 263 276 283 298 272 260 269 256 230 230 236 233 232 208 194 190 188 187 186 183 178 171 167 165 164 161 159 158 156 154 152 152 152 148 144 143 141 137 140 143 132 126 123 122 117 113 108 96 86 76 69 60 48 40 33 27 23 17 12 7 2 359 356 352 350 347 347 346 344 343 343 342 342 342 341 340 340 339 338 336 336 335 334 333 333 331 329
173 165 132 143 147 152 224 227 222 260 290 303 294 256 192 214 263 276 258 282 290 252 230 210 198 193 188 186 187 186 181 176 173 172 170 168 167 166 164 162 162 163 160 156 152 151 152 148 146 148 140 134 132 127 120 112 101 88 76 64 54 45 34 28 22 18 14 7 2 357 353 349 346 342 340 337 335 332 331 330 330 329 330 330 329 329 329 329 329 328 328 328 327 326 325 324 323
210 142 114 156 179 156 176 187 174 185 304 297 256 227 218 197 257 307 305 308 325 258 203 187 189 191 189 190 191 189 185 181 179 177 175 175 174 173 172 170 170 169 165 162 160 160 162 159 155 155 151 145 144 139 130 117 100 85 71 57 43 34 25 17 13 9 3 358 352 347 342 338 335 332 329 326 324 323 324 324 323 324 324 324 324 324 324 324 324 323 322 322 321 321 320 320 319
162 136 173 218 179 127 108 210 124 95 289 273 187 248 283 334 291 312 352 343 351 0 182 175 179 185 190 194 194 192 189 185 183 182 181 180 179 179 178 175 174 174 171 168 167 167 170 170 168 167 166 163 159 151 141 129 112 93 70 50 35 25 16 5 358 351 344 341 336 330 328 325 323 321 318 318 319 320 320 321 322 322 322 322 322 321 321 320 320 319 318 317 316 316 316 316 316
127 172 212 208 144 90 89 178 7 43 260 274 167 230 260 272 271 315 356 298 280 260 192 176 178 186 193 198 197 194 192 189 186 185 185 185 183 182 180 178 178 177 177 176 176 176 175 175 176 177 177 175 167 161 155 146 132 111 85 64 40 14 355 343 340 336 333 332 328 324 323 322 322 322 321 322 322 320 320 320 321 321 320 320 320 319 318 318 317 317 316 316 316 315 314 314 314
114 173 181 126 134 97 88 120 281 250 263 284 266 255 249 203 216 235 232 232 220 203 201 188 187 193 197 201 200 197 194 191 191 189 188 188 186 186 183 180 180 181 182 184 184 185 183 182 183 183 183 181 175 170 163 156 154 155 158 144 354 344 344 342 342 342 340 338 335 332 330 328 327 326 326 325 325 324 324 324 324 324 323 322 321 321 321 321 321 320 320 319 319 318 317 316 315
64 87 38 48 144 147 142 146 155 208 265 287 285 291 275 218 200 186 204 216 195 183 198 205 203 200 200 201 200 198 196 194 194 192 190 189 188 188 187 185 187 187 188 190 190 189 188 189 191 189 187 185 179 176 174 178 185 194 234 343 351 348 347 345 342 341 338 336 335 333 331 329 329 329 328 328 329 329 328 328 328 327 326 326 325 325 325 324 324 323 322 321 320 319 318 317 316
97 87 46 22 109 100 194 218 123 148 191 238 276 284 270 234 192 186 206 212 185 185 195 205 208 206 204 202 200 199 198 197 197 195 191 190 190 189 188 189 192 192 192 193 192 191 193 194 194 191 188 186 183 184 189 195 204 272 346 350 348 345 343 340 337 336 334 333 332 331 330 330 331 330 329 329 329 329 328 328 327 327 327 327 326 326 326 325 324 323 322 321 320 318 317 316 315
150 163 184 182 153 114 173 258 204 142 173 186 229 270 272 258 189 193 212 212 196 201 203 205 211 211 208 206 204 203 202 201 200 197 193 192 192 191 191 192 194 195 195 193 192 195 196 197 197 194 191 191 192 195 197 201 245 343 347 344 342 340 337 334 332 332 332 332 330 329 329 329 328 327 326 326 325 325 325 325 325 325 325 326 327 327 326 325 323 322 320 319 317 316 315 313 312